Back to catalog

COSMOS 2251 DEB

AliveLEO
NORAD 34023·DEBRIS·🇷🇺 Russia

Launched Jun 16, 1993 from Plesetsk Cosmodrome

Loading…

Next Passes (next 24 hours)

TLE

FreshSource: Space-Track

Epoch: Sep 13, 2026, 14:55 UTC

1 34023U 93036HJ  26256.62180824  .00000448  00000-0  14728-3 0  9996
2 34023  74.0227 102.8017 0018225 138.0744 279.4732 14.41029043921734

Track COSMOS 2251 DEB in real time with AllMySat

Download on the App Store